TIME,DELAY(SENSOR),PRES,T(CTD),SAL,OXYGEN,RAWTEMP,T(OPTODE),TCPHASE,FLUOR,BETA(BETA700),BETA(BETA412),BETA(BETA440),CDOM,C(CSC),ED(ED412.40),ED(ED444.00),ED(ED489.70),ED(ED554.30),LU(LU411.80),LU(LU443.40),LU(LU489.60),LU(LU554.10),COMP,TILTX,TILTX(TILTY),CHECK
1355001779,5807,498.1199951171875000,6.3038997650146480,34.1432991027832000,70.1748428344726600,609.3767700195312000,6.2809410095214840,50.2269592285156250,51,104,91,80,79,15181,2147748315,2147421760,2148003053,2147872832,2147635483,2147074742,2148250678,2147195565,157,4,13,28647
1355001950,5806,484.4200134277344000,6.5528001785278320,34.1296005249023440,77.8973236083984400,601.7758178710938000,6.5268898010253910,49.1826782226562500,52,106,87,80,79,15179,2147749028,2147417380,2148005430,2147870884,2147636617,2147077750,2148247981,2147198107,641,4,13,19891
1355002067,5812,472.8399963378906000,6.6385998725891110,34.1296005249023440,82.2412719726562500,598.9113769531250000,6.6194272041320800,48.6318893432617200,52,104,89,80,78,15177,2147749677,2147420224,2148007469,2147871862,2147634496,2147077229,2148250212,2147200694,1354,4,13,523
1355002170,5810,462.1600036621094000,6.8380999565124510,34.1223983764648440,87.2394409179687500,592.6729125976562000,6.8207039833068850,47.9684410095214840,51,105,88,81,78,15178,2147749156,2147423314,2148004790,2147871076,2147631826,2147074112,2148244251,2147199981,1419,4,12,53020
1355002275,5810,451.2999877929687500,6.9077000617980960,34.1180992126464840,91.2752075195312500,590.1823730468750000,6.9009528160095215,47.4799804687500000,52,106,85,80,79,15179,2147747565,2147421686,2148007478,2147872329,2147631131,2147080283,2148244169,2147202587,659,4,12,65005
1355002390,5807,439.4599914550781000,7.2683000564575195,34.1257019042968750,95.6196365356445300,578.9171752929688000,7.2632369995117190,46.8323287963867200,51,107,87,81,79,15177,2147744082,2147418660,2148006125,2147871652,2147629888,2147082624,2148242916,2147202816,796,4,13,45669
1355002493,5808,429.3699951171875000,7.4502000808715820,34.1367988586425800,97.8892364501953100,573.9489135742188000,7.4226508140563965,46.5096588134765600,51,104,89,80,77,15177,2147747529,2147418998,2148005056,2147872859,2147630573,2147083072,2148243785,2147202550,123,4,13,2716
1355002623,5810,418.5700073242187500,7.6229000091552730,34.1203994750976560,100.5227966308593800,568.5751953125000000,7.5948281288146970,46.1434898376464840,51,104,89,81,77,15182,2147747090,2147419474,2148003958,2147873142,2147628653,2147080420,2148243748,2147202066,398,4,13,20913
1355002786,5805,408.4299926757812500,7.8674998283386230,34.1172981262207000,109.3430023193359400,560.9248046875000000,7.8395137786865230,45.1102981567382800,51,108,89,81,76,15178,2147743725,2147419693,2148006208,2147871872,2147628278,2147081453,2148240320,2147199213,556,4,13,48171
1355002954,5806,396.8500061035156000,8.1709003448486330,34.1254005432128900,120.8793029785156200,551.0247192382812000,8.1554155349731450,43.8164405822753900,50,104,89,80,76,15179,2147742582,2147420635,2148006546,2147871478,2147625380,2147085019,2148234971,2147201270,2417,4,13,23159
1355003093,5810,385.9200134277344000,8.5237998962402340,34.1197013854980500,133.2366027832031200,539.3530883789062000,8.5268039703369140,42.4812202453613300,50,105,89,80,75,15176,2147738578,2147419684,2148002057,2147870381,2147625097,2147087396,2148234166,2147198765,2895,4,13,50143
1355003229,5804,373.8099975585937500,8.9504995346069340,34.1142997741699200,145.5662994384765600,526.6397094726562000,8.9301090240478520,41.2017707824707000,50,104,88,79,75,15180,2147739401,2147421257,2148004699,2147868809,2147622976,2147089051,2148233362,2147200740,781,3,12,57690
1355003332,5806,363.3900146484375000,9.0370998382568360,34.1161994934082000,154.2243957519531200,523.6290893554688000,9.0254325866699220,40.4452590942382800,50,105,88,80,74,15178,2147740946,2147420086,2148001645,2147871149,2147619876,2147098980,2148229485,2147204489,3318,4,13,65351
1355003447,5808,351.4200134277344000,9.2187995910644530,34.1129989624023440,159.6743927001953000,517.9658813476562000,9.2045536041259770,39.9211502075195300,50,104,88,79,73,15176,2147736704,2147419529,2148002642,2147873078,2147616164,2147091876,2148228598,2147204196,75,4,13,20118
1355003552,5807,340.1900024414062500,9.4320001602172850,34.1099014282226560,164.4868927001953000,510.9909973144531000,9.4248418807983400,39.4342308044433600,50,105,84,79,74,15175,2147734144,2147425874,2148003702,2147872365,2147618971,2147095232,2148226313,2147203785,1163,4,13,44563
1355003667,5808,328.5700073242187500,9.7419004440307620,34.1120986938476560,174.0148010253906200,501.1040954589844000,9.7364940643310550,38.5676002502441400,49,105,89,80,73,15176,2147732187,2147421065,2148007478,2147874752,2147618166,2147093915,2148232813,2147203757,303,4,13,14839
1355003770,5807,318.5100097656250000,10.0090999603271480,34.1156997680664060,179.8137054443359400,491.6936950683594000,10.0324897766113280,38.0018310546875000,50,106,88,80,72,15175,2147732964,2147421412,2148008841,2147872182,2147615716,2147098889,2148225133,2147200978,1507,3,13,17639
1355003912,5809,307.7099914550781000,10.6946001052856450,34.1335983276367200,189.2684936523437500,471.4574890136719000,10.6670103073120120,37.0264396667480500,49,110,85,81,71,15176,2147734500,2147421814,2148011885,2147871241,2147614601,2147102454,2148229056,2147205641,774,4,13,20803
1355004099,5809,297.2600097656250000,11.0544004440307620,34.1478004455566400,196.7913970947265600,459.3157043457031000,11.0464801788330080,36.3444519042968750,49,107,87,81,70,15174,2147729910,2147424777,2148015808,2147870537,2147611766,2147109632,2148222061,2147204123,2920,4,13,37462
1355004267,5808,284.9100036621094000,11.4766998291015620,34.1557998657226560,199.2772979736328000,446.2208862304687500,11.4547700881958000,35.9759101867675800,49,109,89,80,70,15177,2147727488,2147424877,2148022902,2147871104,2147609216,2147113627,2148225947,2147203721,2288,4,14,28253
1355004394,5807,274.3999938964844000,11.9432001113891600,34.1819992065429700,201.3894958496093800,430.4685974121094000,11.9446601867675780,35.5920486450195300,48,105,87,80,69,15172,2147727058,2147429220,2148026596,2147872393,2147607049,2147118656,2148222683,2147205376,1968,3,14,24727
1355004529,5807,262.6199951171875000,12.8108997344970700,34.2391014099121100,205.9752044677734400,401.5479125976562500,12.8408002853393550,34.8593406677246100,49,104,89,80,69,15174,2147727396,2147432155,2148036370,2147872402,2147601819,2147122139,2148226779,2147207241,935,4,13,64037
1355004644,5807,251.8500061035156200,13.6305999755859380,34.3063011169433600,210.4631958007812500,375.6718139648437500,13.6394500732421880,34.1990013122558600,48,105,87,80,69,15172,2147723492,2147442093,2148070811,2147871606,2147598473,2147135241,2148241718,2147203410,835,4,13,57378
1355004759,5804,241.7700042724609400,14.3737001419067380,34.3714981079101560,212.8948974609375000,352.1612854003906000,14.3628797531127930,33.7048988342285160,49,105,86,80,69,15173,2147726125,2147436297,2148043309,2147870262,2147595968,2147137289,2148226002,2147206838,461,4,14,43558
1355004900,5807,230.8999938964843800,15.1958999633789060,34.4542999267578100,213.0043945312500000,325.1203918457031000,15.1928195953369140,33.2974510192871100,49,105,90,81,67,15170,2147721792,2147467510,2148137472,2147871926,2147591780,2147160201,2148269421,2147214070,1634,3,14,28861
1355005051,5807,220.1499938964843800,15.8564996719360350,34.5169982910156250,213.0973052978515600,304.0079956054687500,15.8395204544067380,32.9835014343261700,49,103,88,80,66,15168,2147720338,2147492086,2148188745,2147874121,2147587264,2147176658,2148282761,2147216758,1007,3,14,35291
1355005197,5811,208.3000030517578000,16.6215991973876950,34.6094017028808600,211.7509002685547000,275.5289001464844000,16.7105693817138670,32.6483688354492200,49,103,88,79,67,15167,2147722834,2147496402,2148189376,2147873362,2147586944,2147187584,2148284388,2147213952,1081,3,13,62973
1355005324,5809,196.7700042724609400,17.3843002319335940,34.6938018798828100,211.1672058105468800,252.6436004638672000,17.4097995758056640,32.3559608459472660,50,103,85,80,65,15167,2147731181,2147586112,2148402011,2147871241,2147589147,2147243584,2148377252,2147225316,3482,4,14,2336
1355005379,5807,191.8099975585937500,17.9151000976562500,34.7635993957519500,211.0308990478515600,236.1268005371093800,17.9142398834228500,32.1319503784179700,50,102,87,79,65,15163,2147738240,2147623286,2148476461,2147871387,2147589202,2147260763,2148411968,2147229531,439,3,14,62189
1355005454,5807,185.5899963378906200,18.4088993072509770,34.8364982604980500,212.0243072509765600,219.7601928710937500,18.4140396118164060,31.8498001098632800,51,105,89,81,64,15163,2147752438,2147672749,2148569883,2147871643,2147590418,2147299803,2148460681,2147232832,3529,3,15,5585
1355005509,5806,181.2500000000000000,18.5590991973876950,34.8600997924804700,213.2716979980468800,215.1381072998047000,18.5552005767822270,31.7184906005859380,50,107,88,80,64,15159,2147760192,2147713188,2148662820,2147873206,2147591908,2147328457,2148504621,2147237869,411,4,14,874
1355005564,5808,176.9900054931640600,18.9680995941162100,34.9160003662109400,213.7877044677734400,201.8477935791015600,18.9611396789550780,31.5081901550292970,51,104,89,80,65,15158,2147774500,2147770057,2148763565,2147872292,2147597348,2147365312,2148550381,2147237449,836,3,14,23702
1355005619,5808,172.8099975585937500,19.2024002075195300,34.9500007629394500,214.2825927734375000,193.1605987548828000,19.2265396118164060,31.3631000518798830,54,102,87,80,65,15155,2147793910,2147835328,2148885979,2147876150,2147604827,2147408256,2148603053,2147246637,381,3,14,12549
1355005674,5807,168.7100067138672000,19.5020999908447270,34.9882011413574200,214.7301940917968800,184.5650024414062500,19.4892101287841800,31.2225704193115230,54,103,89,80,63,15156,2147815524,2147904676,2149008694,2147876425,2147610660,2147451739,2148663524,2147249910,546,3,14,18880
1355005729,5809,164.6399993896484400,19.6571998596191400,35.0115013122558600,215.4026031494140600,179.2055053710937500,19.6530399322509770,31.1147499084472660,56,105,87,81,64,15155,2147844672,2147996534,2149172525,2147875840,2147623451,2147504603,2148746797,2147257170,774,3,15,32533
1355005807,5807,159.5700073242187500,20.0725002288818360,35.0640983581543000,215.9626007080078000,166.3536071777343800,20.0460395812988280,30.9123401641845700,59,108,87,80,64,15147,2147886372,2148116224,2149376466,2147874349,2147640420,2147574784,2148841984,2147263780,1530,2,15,49547
1355005898,5809,155.3099975585937500,20.2099990844726560,35.0824012756347660,217.3607940673828000,161.3638000488281200,20.1986904144287100,30.7722206115722660,60,105,88,80,63,15142,2147912768,2148150244,2149396964,2147878436,2147646336,2147598500,2148846400,2147264841,1060,2,15,53798
1355005977,5807,151.8800048828125000,20.3458003997802730,35.1001014709472660,218.2964019775390600,156.3535003662109400,20.3520202636718750,30.6569004058837900,62,109,89,80,63,15146,2147990518,2148375122,2149825536,2147881353,2147682386,2147730377,2149053824,2147278820,238,3,15,22434
1355006080,5807,147.8699951171875000,20.6438007354736330,35.1264991760253900,219.1940002441406200,147.1965026855468800,20.6323604583740230,30.4891605377197270,66,106,87,81,63,15139,2148071030,2148548361,2150092964,2147879478,2147714605,2147823195,2149177417,2147289142,2581,2,15,16473
1355006185,5807,143.7100067138672000,20.7763996124267580,35.1371994018554700,219.7292938232422000,142.4752044677734400,20.7769794464111330,30.3991794586181640,65,108,88,80,62,15137,2148159497,2148718107,2150346349,2147884973,2147750546,2147924662,2149283657,2147299126,2020,2,15,52142
1355006276,5810,139.6100006103515600,20.9743003845214840,35.1562004089355500,221.2765960693359400,136.4564056396484400,20.9613990783691400,30.2410392761230470,69,106,89,81,62,15133,2148281005,2148933202,2150671286,2147886601,2147802322,2148049344,2149438400,2147307922,1264,2,16,59461
1355006367,5809,135.1799926757812500,21.0946006774902340,35.1666984558105500,222.9246978759765600,132.5364990234375000,21.0815696716308600,30.1062908172607420,70,110,87,82,63,15128,2148436397,2149199789,2151077705,2147894336,2147862756,2148196946,2149631177,2147326134,417,2,15,48089
1355006434,5807,131.5899963378906200,21.1916999816894530,35.1730003356933600,223.5794982910156200,129.1181030273437500,21.1863803863525400,30.0287208557128900,73,106,89,80,63,15128,2148630710,2149553819,2151616786,2147897691,2147944448,2148389412,2149874048,2147343844,929,2,15,33233
1355006515,5806,127.5800018310546900,21.3747997283935550,35.1794013977050800,224.5906066894531200,123.9009017944336000,21.3464107513427730,29.9102001190185550,74,110,87,82,62,15124,2148844187,2149897773,2152117796,2147906715,2148031232,2148587510,2150106313,2147362194,662,3,15,4472
1355006606,5808,124.1399993896484400,21.4230003356933600,35.1817016601562500,225.4181060791015600,121.8455963134765600,21.4094791412353500,29.8427391052246100,76,110,87,81,62,15121,2149084955,2150287396,2152665892,2147914642,2148136429,2148789924,2150346669,2147387346,1260,2,15,40167
1355006745,5808,120.0599975585937500,21.6557006835937500,35.1633987426757800,226.7922973632812500,115.8887023925781200,21.5923309326171880,29.6977195739746100,79,111,88,83,62,15120,2149374701,2150691858,2153207250,2147924004,2148260050,2149025307,2150626550,2147408210,1931,2,15,47421
1355006928,5811,116.5699996948242200,22.0335998535156250,35.1721000671386700,230.6802062988281200,102.3591003417968800,22.0080204010009770,29.3352394104003900,88,114,88,81,62,15110,2149941933,2151454765,2154261220,2147941796,2148491017,2149408091,2151069558,2147444909,24,3,15,30947
1355007258,5808,111.8700027465820300,22.4776000976562500,35.1304016113281250,233.7270965576172000,88.0931472778320300,22.4469795227050780,29.0088691711425780,95,114,87,83,63,15098,2150806016,2152419346,2155340233,2147965120,2148859556,2149841243,2151465344,2147488960,1651,2,16,58448
1355007373,5814,107.8499984741211000,22.6758995056152340,35.1332015991210940,235.1511993408203000,81.1978912353515600,22.6594009399414060,28.8548603057861330,102,113,89,83,62,15079,2151536521,2153333028,2156497819,2147992036,2149161737,2150304896,2151962816,2147536338,2253,2,15,8197
1355007476,5808,103.1299972534179700,22.8005008697509770,35.1311988830566400,235.6683044433593800,77.1256103515625000,22.7849502563476560,28.7792892456054700,103,115,89,83,61,15084,2153049444,2155361316,2159190875,2148053312,2149816905,2151339693,2153142025,2147643465,2034,1,16,25882
1355007555,5809,99.6999969482421900,22.9484004974365230,35.1316986083984400,236.0151062011718800,72.1685028076171900,22.9378509521484380,28.7008991241455080,108,116,90,82,62,15076,2154393243,2157014317,2161201152,2148106349,2150396178,2152134912,2153968960,2147723483,1696,2,15,15391
1355007610,5806,98.0500030517578100,23.0053997039794920,35.1352996826171900,236.1670989990234400,70.3732604980468800,22.9932594299316400,28.6711196899414060,110,118,90,83,61,15068,2155465645,2158313974,2162794998,2148161280,2150834944,2152706907,2154573193,2147788790,1565,2,15,2485
1355007689,5810,96.1600036621093800,23.0480003356933600,35.1379013061523440,236.2635955810547000,68.7285919189453100,23.0440196990966800,28.6459293365478500,112,118,91,83,61,15066,2156521398,2159405019,2163932105,2148195693,2151283574,2153193673,2155023369,2147844434,1548,2,15,30422
1355007768,5807,93.4300003051757800,23.1476993560791000,35.1342010498046900,236.1461029052734400,64.8613662719726600,23.1634292602539060,28.6028995513916000,117,118,88,82,62,15063,2158532068,2161549805,2166322212,2148267364,2152086701,2154120347,2155928210,2147934902,1108,1,16,62809
1355007823,5809,90.6699981689453100,23.4204006195068360,35.1287994384765600,235.8558044433593800,56.4315910339355500,23.4239501953125000,28.5104007720947270,122,116,93,81,62,15051,2160450678,2163574829,2168533494,2148352566,2152911305,2155021156,2156786304,2148028781,961,1,16,34883
1355007878,5809,87.9199981689453100,23.6758003234863280,35.1313018798828100,235.8202972412109400,48.0974197387695300,23.6818294525146500,28.4075202941894530,133,117,93,83,60,15043,2162449846,2165683200,2170770523,2148451337,2153757083,2155986386,2157713965,2148137124,684,2,16,22089
1355007933,5807,85.3499984741211000,23.8071994781494140,35.1347999572753900,236.3778991699218800,44.5885696411132800,23.7904891967773440,28.3381690979003900,133,119,89,83,60,15027,2164804306,2168265225,2173634870,2148570816,2154742537,2157133037,2158846198,2148267364,351,2,15,65063
1355007988,5808,82.9700012207031200,23.8304004669189450,35.1369018554687500,236.7055969238281200,43.5105781555175800,23.8238906860351560,28.3098201751709000,134,118,90,82,59,15022,2167202404,2170950528,2176613769,2148721892,2155767433,2158327606,2160003218,2148402541,377,1,16,13094
1355008043,5808,80.6600036621093800,23.9832992553710940,35.1403007507324200,236.3731994628906200,38.8984718322753900,23.9668407440185550,28.2675304412841800,134,117,91,83,60,15017,2169075337,2172792073,2178445211,2148843245,2156692406,2159328886,2160981860,2148519954,3351,2,16,39892
1355008100,5805,78.5899963378906200,24.1082992553710940,35.1456985473632800,236.4458007812500000,35.9052505493164060,24.0596599578857420,28.2268791198730470,131,118,90,84,59,15023,2171498688,2175488173,2181299309,2149036672,2157734345,2160419830,2161965065,2148651968,2733,2,16,4752
1355008155,5811,77.0899963378906200,24.1805992126464840,35.1528015136718750,236.2183990478515600,33.8725090026855500,24.1227302551269530,28.2120399475097660,130,116,90,82,59,15024,2172857005,2177010267,2182775305,2149116809,2158401005,2161070336,2162505974,2148720219,2475,2,16,57863
1355008246,5807,75.6100006103515600,24.2917003631591800,35.1638984680175800,235.8049926757812500,30.0290794372558600,24.2420291900634770,28.1830291748046880,127,119,88,84,60,15026,2174292187,2178389613,2184286336,2149246646,2159091739,2161828982,2163209362,2148810240,2990,2,16,1328
1355008791,5808,72.9400024414062500,25.1457996368408200,35.2402000427246100,234.3730926513672000,1.1796799898147583,25.1400203704834000,27.8911209106445300,80,119,92,83,57,15049,2175048576,2179071049,2183791716,2149331273,2163009060,2164862966,2164777526,2148965622,1976,2,16,43076
1355008846,5807,71.0800018310546900,25.1501998901367200,35.2406997680664060,234.5953063964843800,0.9413837790489197,25.1474609375000000,27.8781299591064450,79,119,91,83,56,15042,2175173110,2178882450,2182802148,2149384941,2164067702,2165537353,2164883136,2148981174,1695,1,16,6910
1355008901,5811,69.0299987792968800,25.1580009460449220,35.2411994934082000,234.7478027343750000,0.7172495126724243,25.1544494628906250,27.8682804107666000,78,119,91,85,56,15043,2183466624,2188837485,2194236626,2150137691,2170281737,2172383826,2171121801,2149653257,1676,1,16,4503
1355008956,5806,66.9000015258789000,25.1809997558593750,35.2420997619628900,234.8455963134765600,0.0329464711248875,25.1758098602294920,27.8554096221923830,76,119,92,84,57,15035,2186366994,2192095872,2197492955,2150436370,2173527396,2175677284,2173787108,2149917860,1530,2,16,48793
1355009011,5806,64.8399963378906200,25.1840991973876950,35.2414016723632800,234.9989013671875000,-0.1178205013275147,25.1805191040039060,27.8467597961425780,72,120,92,85,59,15033,2189527826,2195845842,2201604114,2150925586,2176372434,2178372498,2175712786,2150165997,1502,2,16,45856
1355009090,5811,61.4900016784668000,25.1861991882324220,35.2411994934082000,235.2660980224609400,-0.1710266023874283,25.1821804046630860,27.8339195251464840,68,121,92,83,57,15033,2192211611,2198364726,2203453092,2151482029,2181032886,2182849197,2178935113,2150510939,1654,2,16,26750
1355009145,5807,58.6399993896484400,25.1924991607666000,35.2406997680664060,235.2252960205078000,-0.4569231867790222,25.1910991668701170,27.8323097229003900,64,118,91,83,55,15032,2185206784,2189203282,2192287872,2150946166,2176921828,2177384374,2173109906,2149943643,1867,1,16,56435
1355009200,5807,55.8199996948242200,25.2019996643066400,35.2408981323242200,235.3787994384765600,-0.6633549928665161,25.1975498199462900,27.8226795196533200,63,118,92,85,58,15027,2192290249,2197279012,2201145462,2152156397,2184338322,2185211428,2179556580,2150703890,2033,1,16,46904
1355009255,5805,52.9300003051757800,25.2031002044677730,35.2414016723632800,235.4705047607422000,-0.7487208247184753,25.2002105712890620,27.8175201416015620,62,119,91,83,58,15024,2208684150,2216634925,2223009728,2154847625,2199568027,2201414418,2193001481,2152353627,2029,2,16,28017
1355009310,5812,49.9099998474121100,25.2049999237060550,35.2406997680664060,235.6876068115234400,-0.7963210940361023,25.2017002105712900,27.8069190979003900,61,120,92,84,56,15027,2218760649,2227584182,2234328850,2156927259,2210916809,2213170770,2202276891,2153504411,1957,1,16,62856
1355009365,5814,46.8600006103515600,25.2043991088867200,35.2407989501953100,235.6663055419922000,-0.7903218865394592,25.2015094757080080,27.8080692291259770,61,118,89,84,57,15029,2230138505,2240703104,2249007707,2160242980,2222146825,2224514011,2211020352,2154902518,1778,1,16,62404
1355009422,5807,43.5499992370605500,25.2047004699707030,35.2402992248535160,235.6542968750000000,-0.7964193820953369,25.2017002105712900,27.8086204528808600,61,118,93,83,57,15028,2243359926,2255133942,2264357046,2164295131,2235569746,2237918253,2221237595,2156658075,1649,1,16,42094
1355009477,5808,40.2799987792968750,25.2052993774414060,35.2405014038085940,235.5944061279297000,-0.8281857967376709,25.2026901245117200,27.8108291625976560,61,118,91,84,56,15028,2254950162,2267371684,2277264694,2169196452,2248193572,2250353645,2230652608,2158526582,1544,1,16,44366
1355009532,5809,36.9099998474121100,25.2129993438720700,35.2407989501953100,235.7993927001953000,-1.2455730438232422,25.2157192230224600,27.7965297698974600,59,118,94,84,55,15021,2265806720,2278667145,2289328896,2174625819,2260146761,2262039104,2239347867,2160134326,1284,2,16,10048
1355009587,5806,33.5200004577636700,25.2390995025634770,35.2462997436523440,235.5637969970703000,-1.9992109537124634,25.2392597198486330,27.7977199554443360,58,117,92,85,52,15022,2282836077,2296860873,2308588214,2183538276,2278469092,2279639625,2252483986,2163377709,1397,1,16,6900
1355009642,5808,30.0200004577636720,25.2516994476318360,35.2485008239746100,235.6201019287109400,-2.2754700183868410,25.2478809356689450,27.7917594909667970,57,120,93,84,59,15025,2299581906,2314608713,2327547410,2195546989,2297720685,2298171968,2266444955,2167149504,1389,2,15,34723
1355009697,5808,26.0799999237060550,25.2520008087158200,35.2496986389160160,235.8350982666015600,-2.5341238975524902,25.2559604644775400,27.7790508270263670,55,118,93,83,57,15026,2326047945,2341901714,2357870427,2213029110,2322945133,2322947812,2285681654,2172233069,1001,1,16,60401
1355009772,5808,21.7199993133544920,25.2530002593994140,35.2503013610839840,235.8175048828125000,-2.9083371162414550,25.2676506042480470,27.7751808166503900,55,118,94,84,54,15022,2347963364,2365128676,2383473206,2236795757,2351725284,2350537664,2306263835,2179130395,874,0,17,18712
